Lynchburg, VA

4:25 AM EST on November 13, 2019 (GMT -0500)
Lynchburg Regional-Glenn

Weather History for KLYH - September, 2019

Change the Weather History Date:

Saturday, September 14, 2019

  Actual Average Record
Temperature  
Mean Temperature 74 °F 68 °F  
Max Temperature 80 °F 79 °F 99 °F (1897)
Min Temperature 67 °F 57 °F 41 °F (1964)
Degree Days  
Heating Degree Days 0 1  
Month to date heating degree days 0 7  
Since 1 July heating degree days 0 10  
Cooling Degree Days 9 4  
Month to date cooling degree days 165 78  
Year to date cooling degree days 1380 976  
Growing Degree Days 23 (Base 50)    
Moisture  
Dew Point 67 °F    
Average Humidity 84    
Maximum Humidity 100    
Minimum Humidity 67    
Precipitation  
Precipitation T in 0.14 in 2.82 in (1966)
Month to date precipitation 0.06 1.84  
Year to date precipitation 27.64 29.77  
Snow  
Snow 0.00 in - - ()
Month to date snowfall 0.0  
Since 1 July snowfall 0.0  
Since 1 September snowfall 0.0  
Snow Depth 0.00 in    
Sea Level Pressure  
Sea Level Pressure 30.26 in    
Wind  
Wind Speed 2 mph (SSE)    
Max Wind Speed 9 mph    
Max Gust Speed 11 mph    
Visibility 10 miles    
Events Rain    
T = Trace of Precipitation, MM = Missing Value Source: NWS Daily Summary

Daily Weather History Graph

Daily Weather History Graph

Search for Another Location

Airport or City:

Astronomy

Sep. 14, 2019 Rise Set
Actual Time 6:57 AM EDT 7:26 PM EDT
Civil Twilight 6:31 AM EDT 7:52 PM EDT
Nautical Twilight 6:00 AM EDT 8:23 PM EDT
Astronomical Twilight 5:29 AM EDT 8:54 PM EDT
Moon 8:06 PM EDT (9/14) 7:10 AM EDT (9/14)
Length of Visible Light 13h 20m
Length of Day
12h 28m
Full, 100% of the Moon is Illuminated
Sep 14
Full
Sep 21
Last Quarter
Sep 28
New
Oct 5
First Quarter
Oct 13
Full

Hourly Weather History & Observations

Time (EDT) Temp. Heat Index Dew Point Humidity Pressure Visibility Wind Dir Wind Speed Gust Speed Precip Events Conditions
12:39 AM 66.9 °F - 66.0 °F 97% 30.34 in 10.0 mi NE 5.8 mph - N/A   Overcast
12:54 AM 66.9 °F - 66.0 °F 97% 30.32 in 10.0 mi NE 6.9 mph - N/A   Overcast
1:54 AM 66.9 °F - 66.0 °F 97% 30.31 in 10.0 mi ENE 4.6 mph - N/A   Overcast
2:12 AM 66.9 °F - 66.0 °F 97% 30.33 in 10.0 mi Calm Calm - N/A   Overcast
2:36 AM 66.9 °F - 64.9 °F 93% 30.32 in 10.0 mi NE 4.6 mph - N/A   Overcast
2:54 AM 66.9 °F - 64.9 °F 93% 30.30 in 10.0 mi NE 3.5 mph - N/A   Overcast
3:20 AM 66.9 °F - 66.0 °F 97% 30.30 in 10.0 mi Calm Calm - N/A   Overcast
3:54 AM 66.9 °F - 64.9 °F 93% 30.28 in 10.0 mi Calm Calm - N/A   Overcast
4:54 AM 66.9 °F - 64.9 °F 93% 30.28 in 10.0 mi Calm Calm - N/A   Overcast
5:44 AM 66.9 °F - 66.0 °F 97% 30.30 in 7.0 mi Calm Calm - N/A   Overcast
5:54 AM 66.9 °F - 66.0 °F 97% 30.29 in 9.0 mi Calm Calm - N/A   Overcast
6:20 AM 66.9 °F - 66.0 °F 97% 30.31 in 9.0 mi Calm Calm - N/A   Overcast
6:54 AM 66.9 °F - 66.0 °F 97% 30.30 in 10.0 mi Calm Calm - N/A   Overcast
7:12 AM 66.9 °F - 64.9 °F 93% 30.31 in 10.0 mi Calm Calm - N/A   Overcast
7:54 AM 66.9 °F - 64.9 °F 93% 30.30 in 10.0 mi Calm Calm - N/A   Overcast
8:54 AM 66.9 °F - 64.9 °F 93% 30.31 in 9.0 mi Calm Calm - N/A   Overcast
9:54 AM 68.0 °F - 66.0 °F 93% 30.31 in 10.0 mi Calm Calm - N/A   Overcast
10:54 AM 70.0 °F - 66.0 °F 87% 30.31 in 10.0 mi Calm Calm - N/A   Overcast
11:54 AM 72.0 °F - 66.9 °F 84% 30.30 in 10.0 mi Variable 3.5 mph - N/A   Overcast
12:11 PM 73.0 °F - 66.9 °F 81% 30.31 in 10.0 mi Variable 4.6 mph - N/A   Overcast
12:45 PM 73.9 °F - 66.9 °F 79% 30.30 in 10.0 mi Variable 3.5 mph - N/A   Overcast
12:54 PM 73.9 °F - 66.9 °F 79% 30.27 in 10.0 mi SSW 4.6 mph - N/A   Overcast
1:54 PM 75.9 °F - 66.9 °F 74% 30.25 in 10.0 mi WSW 4.6 mph - N/A   Overcast
2:54 PM 75.9 °F - 66.9 °F 74% 30.23 in 10.0 mi SSW 5.8 mph - N/A   Overcast
3:54 PM 78.1 °F - 68.0 °F 71% 30.21 in 10.0 mi SSE 4.6 mph - N/A   Overcast
4:54 PM 79.0 °F - 66.9 °F 66% 30.19 in 10.0 mi South 6.9 mph - N/A   Mostly Cloudy
5:06 PM 79.0 °F - 66.9 °F 66% 30.21 in 10.0 mi SSW 6.9 mph - N/A   Scattered Clouds
5:54 PM 79.0 °F - 68.0 °F 69% 30.17 in 10.0 mi Variable 4.6 mph - N/A   Partly Cloudy
6:16 PM 80.1 °F 82.7 °F 68.0 °F 67% 30.20 in 10.0 mi Variable 4.6 mph - N/A   Mostly Cloudy
6:54 PM 77.0 °F - 68.0 °F 74% 30.19 in 10.0 mi SW 3.5 mph - N/A   Mostly Cloudy
7:02 PM 75.9 °F - 68.0 °F 76% 30.21 in 10.0 mi South 3.5 mph - N/A   Scattered Clouds
7:54 PM 72.0 °F - 68.0 °F 87% 30.20 in 10.0 mi Calm Calm - N/A   Scattered Clouds
8:02 PM 72.0 °F - 69.1 °F 91% 30.22 in 10.0 mi Calm Calm - N/A   Mostly Cloudy
8:15 PM 71.1 °F - 68.0 °F 90% 30.22 in 10.0 mi Calm Calm - N/A   Scattered Clouds
8:42 PM 71.1 °F - 68.0 °F 90% 30.23 in 10.0 mi Calm Calm - N/A   Mostly Cloudy
8:54 PM 72.0 °F - 69.1 °F 91% 30.21 in 10.0 mi Calm Calm - N/A   Overcast
9:20 PM 73.0 °F - 69.1 °F 87% 30.23 in 10.0 mi Calm Calm - N/A   Overcast
10:54 PM 72.0 °F - 69.1 °F 91% 30.18 in 10.0 mi Calm Calm - 0.00 in Rain Light Rain
11:54 PM 70.0 °F - 69.1 °F 97% 30.17 in 10.0 mi Calm Calm - 0.00 in   Clear